Data No, UTC Date,UTC Time,Latitude,Longitude,Course(deg),Temp(degC),Sal(psu)
539,2018/9/3,8:58,42-36.77N,141-36.96E,210,20.151,31.8445
540,2018/9/3,8:59,42-36.52N,141-36.87E,183,20.164,31.8368
541,2018/9/3,9:00,42-36.25N,141-36.94E,164,20.171,31.8311
542,2018/9/3,9:01,42-35.99N,141-37.05E,160,20.329,31.7491
543,2018/9/3,9:02,42-35.72N,141-37.19E,158,20.394,31.7998
544,2018/9/3,9:03,42-35.45N,141-37.33E,159,20.459,32.005
545,2018/9/3,9:04,42-35.17N,141-37.48E,159,20.418,32.102
546,2018/9/3,9:05,42-34.89N,141-37.62E,160,20.5,32.1743
547,2018/9/3,9:06,42-34.60N,141-37.75E,160,20.434,32.2057
548,2018/9/3,9:07,42-34.31N,141-37.89E,160,20.481,32.2217
549,2018/9/3,9:08,42-34.01N,141-38.04E,160,20.45,32.2271
550,2018/9/3,9:09,42-33.71N,141-38.18E,160,20.501,32.2382
551,2018/9/3,9:10,42-33.42N,141-38.32E,160,20.543,32.2458
552,2018/9/3,9:11,42-33.12N,141-38.46E,160,20.568,32.2179
553,2018/9/3,9:12,42-32.81N,141-38.60E,160,20.58,32.1835
554,2018/9/3,9:13,42-32.51N,141-38.75E,160,20.582,32.1685
555,2018/9/3,9:14,42-32.20N,141-38.90E,160,20.626,32.1663
556,2018/9/3,9:15,42-31.90N,141-39.05E,159,20.599,32.14
557,2018/9/3,9:16,42-31.59N,141-39.20E,160,20.584,32.1172
558,2018/9/3,9:17,42-31.28N,141-39.35E,159,20.566,32.0791
559,2018/9/3,9:18,42-30.96N,141-39.51E,158,20.55,32.0653
560,2018/9/3,9:19,42-30.66N,141-39.72E,149,20.586,32.0779
561,2018/9/3,9:20,42-30.39N,141-39.98E,142,20.547,32.114
562,2018/9/3,9:21,42-30.12N,141-40.27E,140,20.45,32.1456
563,2018/9/3,9:22,42-29.86N,141-40.58E,137,20.485,32.1753
564,2018/9/3,9:23,42-29.63N,141-40.93E,129,20.39,32.2213
565,2018/9/3,9:24,42-29.42N,141-41.32E,122,20.353,32.2567
566,2018/9/3,9:25,42-29.24N,141-41.74E,120,20.387,32.3135
567,2018/9/3,9:26,42-29.06N,141-42.15E,119,20.266,32.3476
568,2018/9/3,9:27,42-28.88N,141-42.58E,119,20.272,32.3976
569,2018/9/3,9:28,42-28.70N,141-43.00E,120,20.181,32.4374
570,2018/9/3,9:29,42-28.52N,141-43.42E,120,20.124,32.4817
571,2018/9/3,9:30,42-28.34N,141-43.85E,119,20.141,32.542
572,2018/9/3,9:31,42-28.16N,141-44.27E,119,20.171,32.5666
573,2018/9/3,9:32,42-27.98N,141-44.68E,120,20.173,32.5627
574,2018/9/3,9:33,42-27.80N,141-45.10E,120,20.206,32.5558
575,2018/9/3,9:34,42-27.62N,141-45.52E,120,20.292,32.5237
576,2018/9/3,9:35,42-27.43N,141-45.94E,120,20.246,32.4932
577,2018/9/3,9:36,42-27.24N,141-46.35E,121,20.317,32.4796
578,2018/9/3,9:37,42-27.06N,141-46.77E,121,20.327,32.4644
579,2018/9/3,9:38,42-26.87N,141-47.18E,121,20.354,32.4478
580,2018/9/3,9:39,42-26.68N,141-47.60E,121,20.402,32.4352
581,2018/9/3,9:40,42-26.49N,141-48.00E,122,20.323,32.4368
582,2018/9/3,9:41,42-26.30N,141-48.41E,122,20.308,32.4416
583,2018/9/3,9:42,42-26.10N,141-48.83E,122,20.301,32.4414
584,2018/9/3,9:43,42-25.91N,141-49.23E,122,20.307,32.431
585,2018/9/3,9:44,42-25.72N,141-49.63E,122,20.237,32.4281
586,2018/9/3,9:45,42-25.52N,141-50.04E,123,20.242,32.416
587,2018/9/3,9:46,42-25.33N,141-50.44E,123,20.257,32.4304
588,2018/9/3,9:47,42-25.13N,141-50.85E,123,20.247,32.4387
589,2018/9/3,9:48,42-24.93N,141-51.25E,123,20.265,32.4499
590,2018/9/3,9:49,42-24.74N,141-51.65E,123,20.308,32.4548
591,2018/9/3,9:50,42-24.54N,141-52.06E,122,20.3,32.4555
592,2018/9/3,9:51,42-24.35N,141-52.47E,122,20.338,32.4602
593,2018/9/3,9:52,42-24.15N,141-52.87E,122,20.339,32.4479
594,2018/9/3,9:53,42-23.95N,141-53.29E,122,20.362,32.433
595,2018/9/3,9:54,42-23.76N,141-53.69E,122,20.335,32.4154
596,2018/9/3,9:55,42-23.57N,141-54.10E,122,20.322,32.3856
597,2018/9/3,9:56,42-23.37N,141-54.51E,122,20.322,32.3548
598,2018/9/3,9:57,42-23.16N,141-54.97E,122,20.315,32.3445
599,2018/9/3,9:58,42-22.97N,141-55.38E,122,20.093,32.3296
600,2018/9/3,9:59,42-22.78N,141-55.79E,122,20.061,32.3749
601,2018/9/3,10:00,42-22.58N,141-56.20E,122,20.114,32.4688
602,2018/9/3,10:01,42-22.41N,141-56.55E,122,20.103,32.6603
603,2018/9/3,10:02,42-22.23N,141-56.96E,121,19.97,32.7378
604,2018/9/3,10:03,42-22.03N,141-57.37E,122,20.065,32.7949
605,2018/9/3,10:04,42-21.84N,141-57.78E,121,20.096,32.8144
606,2018/9/3,10:05,42-21.65N,141-58.19E,122,20.063,32.8524
607,2018/9/3,10:06,42-21.46N,141-58.60E,122,20.032,32.8529
608,2018/9/3,10:07,42-21.27N,141-59.00E,122,20.076,32.8056
609,2018/9/3,10:08,42-21.08N,141-59.41E,122,20.037,32.7847
610,2018/9/3,10:09,42-20.88N,141-59.82E,122,20.078,32.8003
611,2018/9/3,10:10,42-20.69N,142-00.22E,122,19.812,32.8698
612,2018/9/3,10:11,42-20.50N,142-00.62E,122,19.672,32.9963
613,2018/9/3,10:12,42-20.31N,142-01.02E,122,19.696,33.0714
614,2018/9/3,10:13,42-20.12N,142-01.43E,122,19.707,33.1225
615,2018/9/3,10:14,42-19.93N,142-01.83E,121,19.66,33.239
616,2018/9/3,10:15,42-19.72N,142-02.28E,122,19.684,33.3488
617,2018/9/3,10:16,42-19.53N,142-02.69E,122,19.681,33.4635
618,2018/9/3,10:17,42-19.34N,142-03.09E,122,19.761,33.5398
619,2018/9/3,10:18,42-19.15N,142-03.49E,122,19.736,33.5896
620,2018/9/3,10:19,42-18.98N,142-03.85E,122,19.787,33.5862
621,2018/9/3,10:20,42-18.79N,142-04.25E,122,19.642,33.5694
622,2018/9/3,10:21,42-18.61N,142-04.64E,121,19.657,33.5416
623,2018/9/3,10:22,42-18.43N,142-05.05E,121,19.666,33.5094
624,2018/9/3,10:23,42-18.24N,142-05.45E,122,19.607,33.488
625,2018/9/3,10:24,42-18.05N,142-05.84E,122,19.622,33.4471
626,2018/9/3,10:25,42-17.86N,142-06.24E,121,19.64,33.4259
627,2018/9/3,10:26,42-17.67N,142-06.65E,122,19.582,33.4151
628,2018/9/3,10:27,42-17.48N,142-07.05E,122,19.572,33.4076
629,2018/9/3,10:28,42-17.30N,142-07.44E,122,19.488,33.4142
630,2018/9/3,10:29,42-17.12N,142-07.83E,122,19.515,33.4257
631,2018/9/3,10:30,42-16.94N,142-08.23E,121,19.596,33.4459
632,2018/9/3,10:31,42-16.76N,142-08.64E,121,19.628,33.4701
633,2018/9/3,10:32,42-16.57N,142-09.03E,121,19.681,33.4928
634,2018/9/3,10:33,42-16.39N,142-09.43E,121,19.669,33.495
635,2018/9/3,10:34,42-16.22N,142-09.82E,121,19.694,33.492
636,2018/9/3,10:35,42-16.04N,142-10.21E,121,19.681,33.4925
637,2018/9/3,10:36,42-15.86N,142-10.60E,121,19.717,33.4864
638,2018/9/3,10:37,42-15.68N,142-11.01E,120,19.712,33.4802
639,2018/9/3,10:38,42-15.50N,142-11.40E,120,19.706,33.4818
640,2018/9/3,10:39,42-15.33N,142-11.79E,120,19.698,33.4768
641,2018/9/3,10:40,42-15.16N,142-12.19E,120,19.692,33.472
642,2018/9/3,10:41,42-14.99N,142-12.58E,120,19.715,33.4663
643,2018/9/3,10:42,42-14.82N,142-12.99E,120,19.777,33.4696
644,2018/9/3,10:43,42-14.64N,142-13.39E,120,19.775,33.4667
645,2018/9/3,10:44,42-14.48N,142-13.78E,120,19.796,33.4568
646,2018/9/3,10:45,42-14.31N,142-14.18E,119,19.785,33.4516
647,2018/9/3,10:46,42-14.13N,142-14.59E,119,19.787,33.443
648,2018/9/3,10:47,42-13.97N,142-14.98E,119,19.793,33.4445
649,2018/9/3,10:48,42-13.80N,142-15.39E,119,19.811,33.4376
650,2018/9/3,10:49,42-13.63N,142-15.79E,119,19.797,33.4332
651,2018/9/3,10:50,42-13.45N,142-16.19E,120,19.824,33.4314
652,2018/9/3,10:51,42-13.28N,142-16.59E,120,19.843,33.4297
653,2018/9/3,10:52,42-13.10N,142-16.99E,120,19.838,33.4288
654,2018/9/3,10:53,42-12.93N,142-17.38E,120,19.825,33.4267
655,2018/9/3,10:54,42-12.76N,142-17.79E,119,19.866,33.421
656,2018/9/3,10:55,42-12.59N,142-18.19E,119,19.822,33.4156
657,2018/9/3,10:56,42-12.42N,142-18.59E,119,19.83,33.4115
658,2018/9/3,10:57,42-12.25N,142-18.99E,120,19.813,33.4138
659,2018/9/3,10:58,42-12.07N,142-19.39E,120,19.828,33.4106
660,2018/9/3,10:59,42-11.91N,142-19.79E,119,19.882,33.4123
661,2018/9/3,11:00,42-11.73N,142-20.19E,119,19.863,33.4118
662,2018/9/3,11:01,42-11.56N,142-20.59E,119,19.925,33.4109
663,2018/9/3,11:02,42-11.39N,142-21.00E,119,19.954,33.403
664,2018/9/3,11:03,42-11.22N,142-21.41E,119,20.052,33.3994
665,2018/9/3,11:04,42-11.05N,142-21.81E,119,20.103,33.3929
666,2018/9/3,11:05,42-10.88N,142-22.21E,119,20.159,33.3997
667,2018/9/3,11:06,42-10.70N,142-22.63E,119,20.228,33.4089
668,2018/9/3,11:07,42-10.53N,142-23.03E,119,20.289,33.422
669,2018/9/3,11:08,42-10.36N,142-23.44E,119,20.317,33.4354
670,2018/9/3,11:09,42-10.19N,142-23.85E,119,20.334,33.4476
671,2018/9/3,11:10,42-10.01N,142-24.26E,119,20.361,33.4641
672,2018/9/3,11:11,42-09.85N,142-24.67E,119,20.288,33.4658
673,2018/9/3,11:12,42-09.68N,142-25.08E,119,20.22,33.4673
674,2018/9/3,11:13,42-09.51N,142-25.49E,119,20.189,33.4643
675,2018/9/3,11:14,42-09.33N,142-25.91E,119,20.261,33.4604
676,2018/9/3,11:15,42-09.16N,142-26.31E,119,20.283,33.4902
677,2018/9/3,11:16,42-08.99N,142-26.73E,119,20.207,33.5098
678,2018/9/3,11:17,42-08.82N,142-27.14E,119,20.181,33.51
679,2018/9/3,11:18,42-08.64N,142-27.55E,119,20.154,33.4918
680,2018/9/3,11:19,42-08.47N,142-27.97E,119,20.189,33.4817
681,2018/9/3,11:20,42-08.29N,142-28.38E,119,20.265,33.4764
682,2018/9/3,11:21,42-08.12N,142-28.80E,119,20.32,33.473
683,2018/9/3,11:22,42-07.95N,142-29.20E,119,20.342,33.4916
684,2018/9/3,11:23,42-07.77N,142-29.62E,119,20.273,33.5116
685,2018/9/3,11:24,42-07.60N,142-30.03E,119,20.368,33.5238
686,2018/9/3,11:25,42-07.42N,142-30.45E,119,20.528,33.527
687,2018/9/3,11:26,42-07.24N,142-30.88E,119,20.564,33.5467
688,2018/9/3,11:27,42-07.07N,142-31.30E,118,20.369,33.5656
689,2018/9/3,11:28,42-06.90N,142-31.72E,119,20.239,33.5514
690,2018/9/3,11:29,42-06.72N,142-32.14E,119,20.175,33.4635
691,2018/9/3,11:30,42-06.55N,142-32.57E,118,20.155,33.4043
692,2018/9/3,11:31,42-06.38N,142-32.99E,118,20.213,33.3693
693,2018/9/3,11:32,42-06.20N,142-33.42E,118,20.382,33.3854
694,2018/9/3,11:33,42-06.03N,142-33.84E,118,20.496,33.4263
695,2018/9/3,11:34,42-05.86N,142-34.26E,119,20.616,33.4919
696,2018/9/3,11:35,42-05.69N,142-34.68E,118,20.785,33.5321
697,2018/9/3,11:36,42-05.51N,142-35.10E,118,20.87,33.5521
698,2018/9/3,11:37,42-05.34N,142-35.52E,119,20.928,33.5888
699,2018/9/3,11:38,42-05.17N,142-35.94E,118,20.948,33.6104
700,2018/9/3,11:39,42-04.99N,142-36.37E,119,20.973,33.6211
701,2018/9/3,11:40,42-04.81N,142-36.80E,119,20.967,33.6254
702,2018/9/3,11:41,42-04.64N,142-37.22E,119,21.004,33.6257
703,2018/9/3,11:42,42-04.46N,142-37.64E,119,21.011,33.6257
704,2018/9/3,11:43,42-04.29N,142-38.06E,119,21.026,33.6274
705,2018/9/3,11:44,42-04.11N,142-38.48E,119,21.027,33.6249
706,2018/9/3,11:45,42-03.93N,142-38.91E,119,21.029,33.6239
707,2018/9/3,11:46,42-03.75N,142-39.32E,119,21.064,33.6282
708,2018/9/3,11:47,42-03.58N,142-39.74E,119,21.106,33.6331
709,2018/9/3,11:48,42-03.40N,142-40.17E,119,21.145,33.636
710,2018/9/3,11:49,42-03.22N,142-40.59E,119,21.177,33.6402
711,2018/9/3,11:50,42-03.04N,142-41.00E,119,21.193,33.6447
712,2018/9/3,11:51,42-02.86N,142-41.42E,119,21.199,33.646
713,2018/9/3,11:52,42-02.68N,142-41.85E,119,21.218,33.6464
714,2018/9/3,11:53,42-02.50N,142-42.27E,119,21.176,33.6449
715,2018/9/3,11:54,42-02.31N,142-42.70E,119,21.126,33.6446
716,2018/9/3,11:55,42-02.13N,142-43.13E,119,21.131,33.637
717,2018/9/3,11:56,42-01.96N,142-43.54E,119,21.129,33.6391
718,2018/9/3,11:57,42-01.77N,142-43.97E,119,21.086,33.6389
719,2018/9/3,11:58,42-01.59N,142-44.40E,120,21.066,33.6424
720,2018/9/3,11:59,42-01.40N,142-44.82E,120,21.058,33.649
721,2018/9/3,12:00,42-01.22N,142-45.24E,119,21.068,33.6481
722,2018/9/3,12:01,42-01.04N,142-45.67E,120,21.088,33.6546
723,2018/9/3,12:02,42-00.85N,142-46.10E,120,21.076,33.6587
724,2018/9/3,12:03,42-00.66N,142-46.53E,120,21.08,33.6626
725,2018/9/3,12:04,42-00.47N,142-46.96E,120,21.102,33.6651
726,2018/9/3,12:05,42-00.28N,142-47.39E,120,21.115,33.6648
727,2018/9/3,12:06,42-00.10N,142-47.80E,120,21.152,33.6647
728,2018/9/3,12:07,41-59.91N,142-48.23E,120,21.182,33.659
729,2018/9/3,12:08,41-59.72N,142-48.66E,121,21.153,33.6579
730,2018/9/3,12:09,41-59.52N,142-49.09E,121,21.152,33.6553
731,2018/9/3,12:10,41-59.33N,142-49.51E,121,21.04,33.6417
732,2018/9/3,12:11,41-59.14N,142-49.93E,121,20.933,33.6294
733,2018/9/3,12:12,41-58.95N,142-50.36E,118,20.918,33.6002
734,2018/9/3,12:13,41-58.79N,142-50.81E,115,20.882,33.5845
735,2018/9/3,12:14,41-58.62N,142-51.27E,115,20.926,33.561
736,2018/9/3,12:15,41-58.45N,142-51.73E,115,20.869,33.5344
737,2018/9/3,12:16,41-58.29N,142-52.18E,115,20.751,33.491
738,2018/9/3,12:17,41-58.12N,142-52.63E,117,20.678,33.4539
739,2018/9/3,12:18,41-57.95N,142-53.07E,117,20.794,33.4398
740,2018/9/3,12:19,41-57.78N,142-53.51E,117,20.961,33.4371
741,2018/9/3,12:20,41-57.60N,142-53.96E,117,20.954,33.4565
742,2018/9/3,12:21,41-57.42N,142-54.41E,117,20.673,33.4723
743,2018/9/3,12:22,41-57.24N,142-54.85E,120,20.21,33.4286
744,2018/9/3,12:23,41-57.05N,142-55.27E,120,20.004,33.3178
745,2018/9/3,12:24,41-56.86N,142-55.70E,120,19.946,33.3014
746,2018/9/3,12:25,41-56.67N,142-56.13E,120,19.812,33.3287
747,2018/9/3,12:26,41-56.48N,142-56.57E,120,19.549,33.3703
748,2018/9/3,12:27,41-56.30N,142-57.00E,119,19.585,33.4034
749,2018/9/3,12:28,41-56.12N,142-57.43E,119,19.845,33.4548
750,2018/9/3,12:29,41-55.93N,142-57.84E,120,19.94,33.522
751,2018/9/3,12:30,41-55.75N,142-58.27E,120,20.039,33.6014
752,2018/9/3,12:31,41-55.57N,142-58.69E,119,20.068,33.634
753,2018/9/3,12:32,41-55.38N,142-59.12E,119,19.991,33.6432
754,2018/9/3,12:33,41-55.20N,142-59.54E,119,19.884,33.6155
755,2018/9/3,12:34,41-55.03N,142-59.96E,119,19.745,33.5834
756,2018/9/3,12:35,41-54.85N,143-00.39E,119,19.622,33.4787
757,2018/9/3,12:36,41-54.67N,143-00.81E,118,19.461,33.3645
758,2018/9/3,12:37,41-54.49N,143-01.24E,118,19.321,33.2202
759,2018/9/3,12:38,41-54.32N,143-01.66E,118,19.184,33.1173
760,2018/9/3,12:39,41-54.16N,143-02.09E,116,19.135,32.9918
761,2018/9/3,12:40,41-54.01N,143-02.53E,115,19.122,32.9144
762,2018/9/3,12:41,41-53.86N,143-02.97E,115,19.124,32.7955
763,2018/9/3,12:42,41-53.70N,143-03.40E,115,18.923,32.6872
764,2018/9/3,12:43,41-53.55N,143-03.85E,115,18.944,32.5677
765,2018/9/3,12:44,41-53.40N,143-04.28E,115,18.831,32.4111
766,2018/9/3,12:45,41-53.24N,143-04.71E,115,18.821,32.3517
767,2018/9/3,12:46,41-53.08N,143-05.15E,116,18.867,32.2716
768,2018/9/3,12:47,41-52.92N,143-05.59E,116,18.898,32.2328
769,2018/9/3,12:48,41-52.76N,143-06.02E,116,18.78,32.2667
770,2018/9/3,12:49,41-52.60N,143-06.45E,116,18.615,32.3091
771,2018/9/3,12:50,41-52.45N,143-06.87E,114,18.428,32.2602
772,2018/9/3,12:51,41-52.31N,143-07.31E,113,18.251,32.1072
773,2018/9/3,12:52,41-52.17N,143-07.75E,112,18.297,31.8601
774,2018/9/3,12:53,41-52.04N,143-08.19E,111,18.265,31.7543
775,2018/9/3,12:54,41-51.91N,143-08.65E,110,17.739,31.7923
776,2018/9/3,12:55,41-51.80N,143-09.10E,108,17.168,31.772
777,2018/9/3,12:56,41-51.69N,143-09.54E,107,17.006,31.712
778,2018/9/3,12:57,41-51.59N,143-10.00E,106,16.998,31.781
779,2018/9/3,12:58,41-51.49N,143-10.46E,105,16.912,31.8765
780,2018/9/3,12:59,41-51.40N,143-10.92E,105,16.972,32.0061
781,2018/9/3,13:00,41-51.30N,143-11.38E,106,17.109,32.0839
782,2018/9/3,13:01,41-51.20N,143-11.83E,105,17.453,32.1983
783,2018/9/3,13:02,41-51.12N,143-12.27E,102,17.671,32.3245
784,2018/9/3,13:03,41-51.06N,143-12.73E,98,17.699,32.3888
785,2018/9/3,13:04,41-51.02N,143-13.19E,98,17.758,32.4532
786,2018/9/3,13:05,41-50.97N,143-13.65E,96,17.74,32.4589
787,2018/9/3,13:06,41-50.94N,143-14.12E,93,17.764,32.4679
788,2018/9/3,13:07,41-50.92N,143-14.58E,93,17.788,32.4861
789,2018/9/3,13:08,41-50.90N,143-15.05E,92,17.801,32.4834
790,2018/9/3,13:09,41-50.89N,143-15.53E,92,17.736,32.4574
791,2018/9/3,13:10,41-50.87N,143-15.99E,92,17.771,32.45
792,2018/9/3,13:11,41-50.86N,143-16.45E,92,17.72,32.4288
793,2018/9/3,13:12,41-50.85N,143-16.93E,91,17.774,32.4278
794,2018/9/3,13:13,41-50.84N,143-17.41E,90,17.768,32.4374
795,2018/9/3,13:14,41-50.84N,143-17.87E,89,17.723,32.4374
796,2018/9/3,13:15,41-50.86N,143-18.35E,85,17.637,32.4119
797,2018/9/3,13:16,41-50.90N,143-18.83E,84,17.602,32.3529
798,2018/9/3,13:17,41-50.95N,143-19.29E,80,17.586,32.3084
799,2018/9/3,13:18,41-51.01N,143-19.76E,80,17.622,32.2612
800,2018/9/3,13:19,41-51.08N,143-20.22E,77,17.507,32.2399
801,2018/9/3,13:20,41-51.16N,143-20.69E,78,17.467,32.1841
802,2018/9/3,13:21,41-51.23N,143-21.14E,77,17.487,32.1494
803,2018/9/3,13:22,41-51.40N,143-21.53E,54,17.324,32.1034
804,2018/9/3,13:23,41-51.61N,143-21.88E,48,17.397,32.027
805,2018/9/3,13:24,41-51.84N,143-22.22E,48,17.129,31.9176
806,2018/9/3,13:25,41-52.07N,143-22.57E,48,17.132,31.7582
807,2018/9/3,13:26,41-52.29N,143-22.91E,49,17.055,31.5985
808,2018/9/3,13:27,41-52.52N,143-23.26E,47,17.127,31.4581
809,2018/9/3,13:28,41-52.76N,143-23.58E,43,17.145,31.4301
810,2018/9/3,13:29,41-53.02N,143-23.88E,39,17.009,31.4162
811,2018/9/3,13:30,41-53.29N,143-24.17E,36,16.878,31.4408
812,2018/9/3,13:31,41-53.57N,143-24.44E,35,16.654,31.4802
813,2018/9/3,13:32,41-53.85N,143-24.70E,34,16.45,31.5562
814,2018/9/3,13:33,41-54.14N,143-24.94E,31,16.263,31.6627
815,2018/9/3,13:34,41-54.44N,143-25.18E,29,16.261,31.7049
816,2018/9/3,13:35,41-54.74N,143-25.40E,30,16.384,31.7656
817,2018/9/3,13:36,41-55.04N,143-25.63E,29,16.406,31.7932
818,2018/9/3,13:37,41-55.34N,143-25.86E,29,16.368,31.8001
819,2018/9/3,13:38,41-55.64N,143-26.09E,30,16.357,31.8144
820,2018/9/3,13:39,41-55.94N,143-26.32E,29,16.365,31.8309
821,2018/9/3,13:40,41-56.23N,143-26.55E,29,16.359,31.833
822,2018/9/3,13:41,41-56.53N,143-26.78E,30,16.465,31.8258
823,2018/9/3,13:42,41-56.83N,143-27.02E,30,16.573,31.8137
824,2018/9/3,13:43,41-57.13N,143-27.25E,30,16.518,31.7891
825,2018/9/3,13:44,41-57.43N,143-27.48E,29,16.544,31.7764
826,2018/9/3,13:45,41-57.73N,143-27.73E,31,16.551,31.7767
827,2018/9/3,13:46,41-58.03N,143-27.96E,30,16.509,31.7613
828,2018/9/3,13:47,41-58.32N,143-28.19E,30,16.366,31.7762
829,2018/9/3,13:48,41-58.62N,143-28.43E,29,16.338,31.8139
830,2018/9/3,13:49,41-58.92N,143-28.66E,30,16.454,31.8632
831,2018/9/3,13:50,41-59.22N,143-28.90E,30,16.593,31.8606
832,2018/9/3,13:51,41-59.51N,143-29.14E,30,16.669,31.8516
833,2018/9/3,13:52,41-59.81N,143-29.38E,31,16.659,31.8054
834,2018/9/3,13:53,42-00.11N,143-29.62E,30,16.603,31.7368
835,2018/9/3,13:54,42-00.42N,143-29.85E,30,16.697,31.6917
836,2018/9/3,13:55,42-00.72N,143-30.10E,30,16.685,31.6916
837,2018/9/3,13:56,42-01.03N,143-30.34E,30,16.671,31.6336
838,2018/9/3,13:57,42-01.34N,143-30.59E,30,16.585,31.5875
839,2018/9/3,13:58,42-01.64N,143-30.83E,30,16.64,31.6504
840,2018/9/3,13:59,42-01.95N,143-31.07E,30,16.663,31.6774
841,2018/9/3,14:00,42-02.25N,143-31.31E,30,16.799,31.6493
842,2018/9/3,14:01,42-02.55N,143-31.56E,30,16.842,31.6155
843,2018/9/3,14:02,42-02.86N,143-31.81E,30,16.807,31.5233
844,2018/9/3,14:03,42-03.17N,143-32.05E,30,16.856,31.4655
845,2018/9/3,14:04,42-03.47N,143-32.29E,30,16.767,31.4454
846,2018/9/3,14:05,42-03.78N,143-32.53E,30,16.679,31.3852
847,2018/9/3,14:06,42-04.09N,143-32.77E,30,16.603,31.4405
848,2018/9/3,14:07,42-04.40N,143-33.02E,31,16.448,31.5016
849,2018/9/3,14:08,42-04.70N,143-33.25E,29,16.184,31.4963
850,2018/9/3,14:09,42-05.01N,143-33.49E,29,15.876,31.5724
851,2018/9/3,14:10,42-05.32N,143-33.73E,30,15.728,31.6339
852,2018/9/3,14:11,42-05.63N,143-33.97E,29,15.899,31.7219
853,2018/9/3,14:12,42-05.94N,143-34.21E,29,15.819,31.7553
854,2018/9/3,14:13,42-06.26N,143-34.45E,30,15.706,31.7492
855,2018/9/3,14:14,42-06.56N,143-34.70E,31,15.651,31.7864
856,2018/9/3,14:15,42-06.86N,143-34.93E,30,15.718,31.8181
857,2018/9/3,14:16,42-07.17N,143-35.17E,29,15.906,31.8466
858,2018/9/3,14:17,42-07.48N,143-35.40E,29,16.107,31.859
859,2018/9/3,14:18,42-07.79N,143-35.64E,30,16.13,31.8509
860,2018/9/3,14:19,42-08.10N,143-35.89E,30,15.953,31.8064
861,2018/9/3,14:20,42-08.41N,143-36.13E,29,15.781,31.739
862,2018/9/3,14:21,42-08.71N,143-36.36E,30,15.59,31.6805
863,2018/9/3,14:22,42-09.02N,143-36.60E,29,15.907,31.7131
864,2018/9/3,14:23,42-09.33N,143-36.84E,31,16.579,31.8604
865,2018/9/3,14:24,42-09.64N,143-37.09E,30,17.007,32.0223
866,2018/9/3,14:25,42-09.95N,143-37.33E,30,17.2,32.1913
867,2018/9/3,14:26,42-10.27N,143-37.58E,30,17.164,32.3635
868,2018/9/3,14:27,42-10.58N,143-37.82E,30,16.765,32.5068
869,2018/9/3,14:28,42-10.88N,143-38.06E,30,16.748,32.5172
870,2018/9/3,14:29,42-11.20N,143-38.31E,30,16.68,32.5185
871,2018/9/3,14:30,42-11.52N,143-38.54E,28,16.844,32.538
872,2018/9/3,14:31,42-11.82N,143-38.78E,29,16.796,32.5493
873,2018/9/3,14:32,42-12.14N,143-39.01E,28,16.646,32.5604
874,2018/9/3,14:33,42-12.45N,143-39.25E,29,16.737,32.5423
875,2018/9/3,14:34,42-12.77N,143-39.48E,29,16.931,32.5349
876,2018/9/3,14:35,42-13.08N,143-39.71E,29,17.12,32.5565
877,2018/9/3,14:36,42-13.40N,143-39.95E,28,17.336,32.5882
878,2018/9/3,14:37,42-13.72N,143-40.18E,28,17.351,32.6171
879,2018/9/3,14:38,42-14.04N,143-40.42E,28,17.572,32.6437
880,2018/9/3,14:39,42-14.36N,143-40.66E,28,17.744,32.6539
881,2018/9/3,14:40,42-14.67N,143-40.89E,28,17.932,32.668
882,2018/9/3,14:41,42-15.00N,143-41.13E,28,18.091,32.7
883,2018/9/3,14:42,42-15.32N,143-41.38E,30,18.169,32.7204
884,2018/9/3,14:43,42-15.63N,143-41.63E,30,18.218,32.7381
885,2018/9/3,14:44,42-15.95N,143-41.89E,30,18.231,32.7441
886,2018/9/3,14:45,42-16.26N,143-42.14E,31,18.164,32.7483
887,2018/9/3,14:46,42-16.57N,143-42.40E,31,18.016,32.74
888,2018/9/3,14:47,42-16.89N,143-42.65E,30,18.012,32.7218
889,2018/9/3,14:48,42-17.21N,143-42.90E,29,18.095,32.6987
890,2018/9/3,14:49,42-17.53N,143-43.15E,29,18.17,32.7014
891,2018/9/3,14:50,42-17.85N,143-43.39E,29,18.208,32.7095
892,2018/9/3,14:51,42-18.16N,143-43.62E,29,18.188,32.7153
893,2018/9/3,14:52,42-18.48N,143-43.87E,29,18.202,32.7107
894,2018/9/3,14:53,42-18.80N,143-44.11E,29,18.19,32.7046
895,2018/9/3,14:54,42-19.12N,143-44.35E,28,18.105,32.7105
896,2018/9/3,14:55,42-19.45N,143-44.59E,28,18.104,32.6976
897,2018/9/3,14:56,42-19.77N,143-44.83E,28,18.143,32.6946
898,2018/9/3,14:57,42-20.09N,143-45.07E,29,18.205,32.7005
899,2018/9/3,14:58,42-20.41N,143-45.31E,29,18.255,32.7005
900,2018/9/3,14:59,42-20.73N,143-45.55E,28,18.233,32.7112
901,2018/9/3,15:00,42-21.05N,143-45.78E,29,18.275,32.714
902,2018/9/3,15:01,42-21.37N,143-46.02E,28,18.264,32.7133
903,2018/9/3,15:02,42-21.68N,143-46.25E,28,18.289,32.7131
904,2018/9/3,15:03,42-22.00N,143-46.48E,28,18.325,32.7092
905,2018/9/3,15:04,42-22.32N,143-46.72E,28,18.362,32.7095
906,2018/9/3,15:05,42-22.64N,143-46.96E,28,18.331,32.709
907,2018/9/3,15:06,42-22.96N,143-47.20E,28,18.336,32.7054
908,2018/9/3,15:07,42-23.28N,143-47.43E,28,18.284,32.7019
909,2018/9/3,15:08,42-23.60N,143-47.67E,28,18.287,32.7006
910,2018/9/3,15:09,42-23.92N,143-47.90E,28,18.251,32.6997
911,2018/9/3,15:10,42-24.24N,143-48.14E,28,18.255,32.7009
912,2018/9/3,15:11,42-24.56N,143-48.38E,28,18.207,32.6965
913,2018/9/3,15:12,42-24.88N,143-48.61E,28,18.193,32.6938
914,2018/9/3,15:13,42-25.20N,143-48.86E,29,18.171,32.6954
915,2018/9/3,15:14,42-25.52N,143-49.09E,29,18.132,32.7
916,2018/9/3,15:15,42-25.84N,143-49.33E,29,18.132,32.698
917,2018/9/3,15:16,42-26.15N,143-49.58E,29,18.116,32.6956
918,2018/9/3,15:17,42-26.47N,143-49.82E,29,18.122,32.6978
919,2018/9/3,15:18,42-26.80N,143-50.06E,29,18.098,32.6892
920,2018/9/3,15:19,42-27.11N,143-50.31E,29,18.084,32.6958
921,2018/9/3,15:20,42-27.43N,143-50.55E,29,18.088,32.69
922,2018/9/3,15:21,42-27.74N,143-50.80E,30,18.114,32.6949
923,2018/9/3,15:22,42-28.06N,143-51.06E,31,18.122,32.6914
924,2018/9/3,15:23,42-28.38N,143-51.32E,30,18.092,32.6999
925,2018/9/3,15:24,42-28.69N,143-51.57E,30,18.109,32.6946
926,2018/9/3,15:25,42-29.00N,143-51.82E,31,18.095,32.6977
927,2018/9/3,15:26,42-29.31N,143-52.08E,31,18.056,32.6952
928,2018/9/3,15:27,42-29.63N,143-52.34E,31,17.984,32.6976
929,2018/9/3,15:28,42-29.95N,143-52.59E,30,18.008,32.6981
930,2018/9/3,15:29,42-30.26N,143-52.85E,31,18.02,32.685
931,2018/9/3,15:30,42-30.58N,143-53.10E,31,18.01,32.694
932,2018/9/3,15:31,42-30.89N,143-53.36E,30,18.022,32.6959
933,2018/9/3,15:32,42-31.21N,143-53.61E,30,18.047,32.6949
934,2018/9/3,15:33,42-31.53N,143-53.87E,30,17.881,32.6947
935,2018/9/3,15:34,42-31.84N,143-54.12E,30,17.756,32.6803
936,2018/9/3,15:35,42-32.16N,143-54.36E,30,17.741,32.657
937,2018/9/3,15:36,42-32.47N,143-54.60E,29,17.807,32.6409
938,2018/9/3,15:37,42-32.79N,143-54.85E,29,17.908,32.6614
939,2018/9/3,15:38,42-33.12N,143-55.10E,30,17.973,32.6769
940,2018/9/3,15:39,42-33.44N,143-55.35E,29,17.941,32.6925
941,2018/9/3,15:40,42-33.75N,143-55.59E,29,17.917,32.7031